(38538) = 1999 UZ47

Discovered at Catalina on 1999-10-30 by CSS.

Orbit

Orbit type: Main Belt

Note: WebGL enabled browser required.

epoch2023-09-13.0
epoch JD2460200.5
perihelion date2023-02-25.57325
perihelion JD2460001.07325
argument of perihelion (°)229.05623
ascending node (°)1.62970
inclination (°)10.18843
eccentricity0.0545843
perihelion distance (AU)2.8021234
Tisserand w.r.t. Jupiter3.2
ΔV w.r.t. Earth (km/sec)10.9
semimajor axis (AU)2.9639062
mean anomaly (°)38.52038
mean daily motion (°/day)0.19315550
aphelion distance (AU)3.126
period (years)5.1
P-vector [x]-0.63390971
P-vector [y]-0.64577059
P-vector [z]-0.42560407
Q-vector [x]0.77339070
Q-vector [y]-0.52570410
Q-vector [z]-0.35426264
absolute magnitude14.14
phase slope0.15
uncertainty0
referenceMPEC 2024-A48
observations used1639
oppositions19
arc length (days)9608
first opposition used1997
last opposition used2023
residual rms (arc-secs)0.69
perturbers coarse indicatorM-v
perturbers precise indicator003Ek
first observation date used1997-04-12.0
last observation date used2023-08-02.0
computer nameMPCLINUX
JD of orbit computation2456966.800674
perihelion JD uncertainty (days)3.3124E-04
argument of perihelion uncertainty (°)6.5756E-05
ascending node uncertainty (°)1.7993E-05
inclination uncertainty (°)7.8144E-06
eccentricity uncertainty 5.6745E-08
perihelion distance uncertainty (AU)1.6387E-07
Minimum Orbit Intersection Distances (in AU)
for orbit epoch: 2460200.5, reference: E2024-A48
Mercury2.34593
Venus2.09039
Earth1.80473
Mars1.20278
Jupiter1.87537
Saturn6.04593
Uranus15.5476
Neptune26.7466

Observations

1674 total observations over interval: 1997 04 12.35490 – 2023 08 02.809093
These data are available for download (format description).

Date (UT) J2000 RA J2000 Dec Magn Location Ref
1997 04 12.35490 13 20 53.72 -14 49 47.2 18.0 V 691 – Steward Observatory, Kitt Peak-Spacewatch MPS 22309
1997 04 12.36148 13 20 53.34 -14 49 46.5 18.0 V 691 – Steward Observatory, Kitt Peak-Spacewatch MPS 22309
1997 04 12.36736 13 20 53.00 -14 49 45.8 18.0 V 691 – Steward Observatory, Kitt Peak-Spacewatch MPS 22309
1999 10 03.28569 01 42 58.14 +16 27 28.8 18.6   704 – Lincoln Laboratory ETS, New Mexico MPS 20873
1999 10 03.29689 01 42 57.66 +16 27 28.8 19.0   704 – Lincoln Laboratory ETS, New Mexico MPS 20873
1999 10 03.30810 01 42 57.11 +16 27 28.5 18.8   704 – Lincoln Laboratory ETS, New Mexico MPS 20873
1999 10 03.31927 01 42 56.51 +16 27 27.4 18.6   704 – Lincoln Laboratory ETS, New Mexico MPS 20873
1999 10 03.33043 01 42 56.00 +16 27 26.9 18.7   704 – Lincoln Laboratory ETS, New Mexico MPS 20873
1999 10 21.18428 01 27 30.67 +15 54 47.0 19.0   704 – Lincoln Laboratory ETS, New Mexico MPS 20873
1999 10 21.21544 01 27 28.92 +15 54 41.4 19.1   704 – Lincoln Laboratory ETS, New Mexico MPS 20873
1999 10 21.23084 01 27 28.10 +15 54 39.6 18.5   704 – Lincoln Laboratory ETS, New Mexico MPS 20873
1999 10 21.24652 01 27 27.28 +15 54 36.5 19.0   704 – Lincoln Laboratory ETS, New Mexico MPS 20873
1999 10 30.23587 01 19 44.68 +15 30 16.7 18.8 R 703 – Catalina Sky Survey MPS 15516
1999 10 30.24789 01 19 44.09 +15 30 14.9 18.1 R 703 – Catalina Sky Survey MPS 15516
1999 10 30.25994 01 19 43.38 +15 30 12.8 18.1 R 703 – Catalina Sky Survey MPS 15516
1999 10 30.27191 01 19 42.88 +15 30 10.2 18.1 R 703 – Catalina Sky Survey MPS 15516
1999 11 04.24259 01 15 46.98 +15 15 59.1 18.7   704 – Lincoln Laboratory ETS, New Mexico MPS 15516
1999 11 04.25907 01 15 46.18 +15 15 56.4 18.5   704 – Lincoln Laboratory ETS, New Mexico MPS 15516
1999 11 04.27565 01 15 45.44 +15 15 53.9 19.6   704 – Lincoln Laboratory ETS, New Mexico MPS 15516
1999 11 04.29253 01 15 44.61 +15 15 50.7 19.1   704 – Lincoln Laboratory ETS, New Mexico MPS 15516
1999 11 04.30904 01 15 43.81 +15 15 47.7 19.8   704 – Lincoln Laboratory ETS, New Mexico MPS 15516
1999 11 11.15546 01 10 55.34 +14 56 46.9 18.2 R 703 – Catalina Sky Survey MPS 20873
1999 11 11.16785 01 10 54.88 +14 56 46.4 18.1 R 703 – Catalina Sky Survey MPS 20873
1999 11 11.18035 01 10 54.29 +14 56 45.0 18.8 R 703 – Catalina Sky Survey MPS 20873
1999 11 11.19278 01 10 53.86 +14 56 42.6 18.3 R 703 – Catalina Sky Survey MPS 20873
2000 11 24.33778 07 42 48.25 +34 52 02.7 19.2 R 699 – Lowell Observatory-LONEOS MPS 22309
2000 11 24.35646 07 42 47.97 +34 52 06.1   699 – Lowell Observatory-LONEOS MPS 22309
2000 11 24.37514 07 42 47.71 +34 52 12.0   699 – Lowell Observatory-LONEOS MPS 22309
2000 11 24.39386 07 42 47.45 +34 52 15.7   699 – Lowell Observatory-LONEOS MPS 22309
2000 11 26.365750 07 42 19.850 +35 00 00.20 19.06 V 645 – Apache Point-Sloan Digital Sky Survey MPS 81135
2000 11 26.369222 07 42 19.788 +35 00 01.15 19.83   645 – Apache Point-Sloan Digital Sky Survey MPS 81135
2000 12 01.42614 07 40 37.68 +35 20 12.2 19.2   704 – Lincoln Laboratory ETS, New Mexico MPS 23720
2000 12 01.44221 07 40 37.22 +35 20 15.6 19.0   704 – Lincoln Laboratory ETS, New Mexico MPS 23720
2000 12 01.45783 07 40 36.74 +35 20 18.4 19.0   704 – Lincoln Laboratory ETS, New Mexico MPS 23720
2000 12 01.47228 07 40 36.40 +35 20 22.0 19.0   704 – Lincoln Laboratory ETS, New Mexico MPS 23720
2000 12 01.48679 07 40 36.02 +35 20 25.6 19.4   704 – Lincoln Laboratory ETS, New Mexico MPS 23720
2000 12 04.38610 07 39 17.45 +35 32 02.6 19.3   704 – Lincoln Laboratory ETS, New Mexico MPS 22309
2000 12 04.40127 07 39 16.95 +35 32 05.5 19.0   704 – Lincoln Laboratory ETS, New Mexico MPS 22309
2000 12 04.41616 07 39 16.44 +35 32 08.9 18.6   704 – Lincoln Laboratory ETS, New Mexico MPS 22309
2000 12 06.37182 07 38 15.43 +35 39 54.9 19.3   704 – Lincoln Laboratory ETS, New Mexico MPS 22309
2000 12 06.40260 07 38 14.16 +35 40 04.1 19.4   704 – Lincoln Laboratory ETS, New Mexico MPS 22309
2000 12 06.41779 07 38 13.80 +35 40 06.6 19.2   704 – Lincoln Laboratory ETS, New Mexico MPS 22309
2000 12 06.43297 07 38 13.20 +35 40 11.0 19.1   704 – Lincoln Laboratory ETS, New Mexico MPS 22309
2000 12 19.30627 07 29 00.17 +36 27 25.0 18.3   704 – Lincoln Laboratory ETS, New Mexico MPS 23720
2000 12 19.32153 07 28 59.40 +36 27 28.2 18.6   704 – Lincoln Laboratory ETS, New Mexico MPS 23720
2000 12 19.33678 07 28 58.57 +36 27 31.2 18.3   704 – Lincoln Laboratory ETS, New Mexico MPS 23720
2000 12 19.35203 07 28 57.80 +36 27 34.7 18.5   704 – Lincoln Laboratory ETS, New Mexico MPS 23720
2000 12 19.36730 07 28 56.94 +36 27 37.8 18.8   704 – Lincoln Laboratory ETS, New Mexico MPS 23720
2001 01 05.30505 07 12 04.56 +37 05 24.3 18.3   704 – Lincoln Laboratory ETS, New Mexico MPS 23720
2001 01 05.32043 07 12 03.61 +37 05 25.2 18.3   704 – Lincoln Laboratory ETS, New Mexico MPS 23720
2001 01 05.33588 07 12 02.55 +37 05 26.7 18.6   704 – Lincoln Laboratory ETS, New Mexico MPS 23720
2001 01 05.35127 07 12 01.59 +37 05 27.3 18.7   704 – Lincoln Laboratory ETS, New Mexico MPS 23720
2001 01 05.36666 07 12 00.53 +37 05 29.1 18.6   704 – Lincoln Laboratory ETS, New Mexico MPS 23720
2002 01 12.46826 13 00 33.57 -05 12 38.3 19.6   704 – Lincoln Laboratory ETS, New Mexico MPS 48732
2002 01 12.48359 13 00 34.05 -05 12 43.9 19.8   704 – Lincoln Laboratory ETS, New Mexico MPS 48732
2002 01 12.49889 13 00 34.56 -05 12 48.9 19.7   704 – Lincoln Laboratory ETS, New Mexico MPS 48732
2002 01 12.51435 13 00 34.89 -05 12 56.3 19.8   704 – Lincoln Laboratory ETS, New Mexico MPS 48732
2002 02 20.31892 13 07 55.59 -07 45 20.6 18.8   704 – Lincoln Laboratory ETS, New Mexico MPS 51681
2002 02 20.34760 13 07 55.13 -07 45 24.8 19.4   704 – Lincoln Laboratory ETS, New Mexico MPS 51681
2002 02 20.36221 13 07 54.92 -07 45 26.5 19.3   704 – Lincoln Laboratory ETS, New Mexico MPS 51681
2002 03 10.59297 12 59 21.33 -07 59 13.2 20.6   608 – Haleakala-AMOS MPS 51681
2002 03 10.60366 12 59 20.89 -07 59 13.6 20.7   608 – Haleakala-AMOS MPS 51681
2002 03 10.61426 12 59 20.42 -07 59 12.8 20.5   608 – Haleakala-AMOS MPS 51681
2002 03 11.34799 12 58 51.12 -07 59 00.6 18.4   704 – Lincoln Laboratory ETS, New Mexico MPS 51681
2002 03 11.36824 12 58 50.16 -07 58 59.3 18.7   704 – Lincoln Laboratory ETS, New Mexico MPS 51681
2002 03 11.38856 12 58 49.30 -07 58 58.4 19.0   704 – Lincoln Laboratory ETS, New Mexico MPS 51681
2002 03 13.41160 12 57 24.58 -07 58 02.5 18.2   704 – Lincoln Laboratory ETS, New Mexico MPS 51681
2002 03 13.42605 12 57 23.90 -07 58 02.1 18.2   704 – Lincoln Laboratory ETS, New Mexico MPS 51681
2002 03 13.44054 12 57 23.29 -07 58 01.7 18.6   704 – Lincoln Laboratory ETS, New Mexico MPS 51681
2002 03 13.45495 12 57 22.59 -07 58 00.8 18.3   704 – Lincoln Laboratory ETS, New Mexico MPS 51681
2002 03 13.46932 12 57 21.97 -07 58 01.1 18.5   704 – Lincoln Laboratory ETS, New Mexico MPS 51681
2002 03 15.39185 12 55 57.78 -07 56 43.1 17.8   704 – Lincoln Laboratory ETS, New Mexico MPS 51681
2002 03 15.40611 12 55 57.07 -07 56 42.3 18.6   704 – Lincoln Laboratory ETS, New Mexico MPS 51681
2002 03 15.42173 12 55 56.37 -07 56 42.0 18.5   704 – Lincoln Laboratory ETS, New Mexico MPS 51681
2002 03 15.43626 12 55 55.70 -07 56 41.9 18.2   704 – Lincoln Laboratory ETS, New Mexico MPS 51681
2002 03 15.45057 12 55 55.05 -07 56 41.8 18.8   704 – Lincoln Laboratory ETS, New Mexico MPS 51681
2002 03 18.43386 12 53 36.98 -07 53 58.4 18.3   704 – Lincoln Laboratory ETS, New Mexico MPS 51681
2002 03 18.44935 12 53 36.26 -07 54 00.7 18.7   704 – Lincoln Laboratory ETS, New Mexico MPS 51681
2002 03 18.46484 12 53 35.45 -07 53 55.4 18.5   704 – Lincoln Laboratory ETS, New Mexico MPS 51681
2002 03 18.48026 12 53 34.78 -07 53 54.0 18.8   704 – Lincoln Laboratory ETS, New Mexico MPS 51681
2002 03 20.35651 12 52 04.33 -07 51 48.2 17.8 R 699 – Lowell Observatory-LONEOS MPS 51681
2002 03 20.36901 12 52 03.68 -07 51 47.7   699 – Lowell Observatory-LONEOS MPS 51681
2002 03 20.38153 12 52 03.05 -07 51 46.5   699 – Lowell Observatory-LONEOS MPS 51681
2002 03 20.39404 12 52 02.38 -07 51 45.2   699 – Lowell Observatory-LONEOS MPS 51681
2002 03 23.35238 12 49 34.73 -07 47 50.7 18.1   704 – Lincoln Laboratory ETS, New Mexico MPS 51681
